Weather History for KDDC - February, 2013

Change the Weather History Date:

Saturday, February 2, 2013

  Actual Average Record
Temperature  
Mean Temperature 42 °F -  
Max Temperature 55 °F 40 °F 74 °F (2003)
Min Temperature 30 °F 19 °F -11 °F (1902)
Degree Days  
Heating Degree Days 22    
Moisture  
Dew Point 24 °F    
Average Humidity 55    
Maximum Humidity 85    
Minimum Humidity 15    
Precipitation  
Precipitation 0.00 in - - ()
Sea Level Pressure  
Sea Level Pressure 30.28 in    
Wind  
Wind Speed 11 mph (WNW)    
Max Wind Speed 16 mph    
Max Gust Speed 21 mph    
Visibility 10 miles    
Events      
Averages and records for this station are not official NWS values.
T = Trace of Precipitation, MM = Missing Value Source: NWS Daily Summary

Daily Weather History Graph

Daily Weather History Graph

Search for Another Location

Airport or City:

Trip Planner

Search our weather history database for the weather conditions in past years. The results will help you decide how hot, cold, wet, or windy it might be!

Date:

Astronomy

Feb. 02, 2013 Rise Set
Actual Time 7:42 AM CST 6:05 PM CST
Civil Twilight 7:15 AM CST 6:32 PM CST
Nautical Twilight 6:43 AM CST 7:03 PM CST
Astronomical Twilight 6:13 AM CST 7:34 PM CST
Moon 12:05 AM CST (2/2) 11:02 AM CST (2/2)
Length of Visible Light 11h 17m
Length of Day
10h 22m
Waning Gibbous, 59% of the Moon is Illuminated
Feb 2
Waning Gibbous
Feb 3
Last Quarter
Feb 10
New
Feb 17
First Quarter
Feb 25
Full

Hourly Weather History & Observations

Time (CST) Temp. Windchill Dew Point Humidity Pressure Visibility Wind Dir Wind Speed Gust Speed Precip Events Conditions
12:52 AM 32.0 °F 23.6 °F 24.1 °F 73% 30.19 in 10.0 mi West 10.4 mph - N/A   Clear
1:52 AM 34.0 °F 23.8 °F 25.0 °F 70% 30.20 in 10.0 mi NW 16.1 mph - N/A   Partly Cloudy
2:52 AM 32.0 °F 23.0 °F 26.1 °F 79% 30.22 in 10.0 mi NW 11.5 mph - N/A   Clear
3:52 AM 32.0 °F 23.6 °F 28.0 °F 85% 30.22 in 10.0 mi NW 10.4 mph - N/A   Clear
4:52 AM 30.9 °F 21.2 °F 27.0 °F 85% 30.25 in 10.0 mi NW 12.7 mph - N/A   Clear
5:52 AM 32.0 °F 23.6 °F 27.0 °F 82% 30.27 in 10.0 mi WNW 10.4 mph - N/A   Clear
6:52 AM 30.0 °F 21.1 °F 25.0 °F 82% 30.29 in 10.0 mi West 10.4 mph - N/A   Clear
7:52 AM 30.0 °F 21.1 °F 25.0 °F 82% 30.33 in 10.0 mi WNW 10.4 mph - N/A   Clear
8:52 AM 33.1 °F 23.0 °F 26.1 °F 75% 30.35 in 10.0 mi NW 15.0 mph - N/A   Clear
9:52 AM 41.0 °F 33.9 °F 28.9 °F 62% 30.34 in 10.0 mi WNW 12.7 mph - N/A   Clear
10:52 AM 46.0 °F 39.6 °F 27.0 °F 47% 30.34 in 10.0 mi WNW 15.0 mph - N/A   Clear
11:52 AM 48.9 °F - 27.0 °F 43% 30.33 in 10.0 mi WNW 12.7 mph - N/A   Clear
12:52 PM 53.1 °F - 26.1 °F 35% 30.29 in 10.0 mi NW 13.8 mph 20.7 mph N/A   Clear
1:52 PM 55.4 °F - 23.0 °F 29% 30.24 in 10.0 mi NNW 15.0 mph 20.7 mph N/A   Clear
2:52 PM 55.0 °F - 21.0 °F 27% 30.25 in 10.0 mi NNW 8.1 mph - N/A   Clear
3:52 PM 55.9 °F - 19.9 °F 25% 30.25 in 10.0 mi WNW 9.2 mph - N/A   Clear
4:52 PM 55.0 °F - 19.0 °F 24% 30.26 in 10.0 mi NW 9.2 mph - N/A   Clear
5:52 PM 46.0 °F 43.1 °F 21.0 °F 37% 30.28 in 10.0 mi WNW 5.8 mph - N/A   Clear
6:52 PM 46.0 °F 43.1 °F 19.9 °F 35% 30.28 in 10.0 mi WSW 5.8 mph - N/A   Clear
7:52 PM 39.9 °F 35.1 °F 21.0 °F 47% 30.30 in 10.0 mi WSW 6.9 mph - N/A   Clear
8:52 PM 35.1 °F 29.3 °F 21.0 °F 57% 30.32 in 10.0 mi WNW 6.9 mph - N/A   Clear
9:52 PM 35.1 °F 27.4 °F 23.0 °F 61% 30.32 in 10.0 mi WNW 10.4 mph - N/A   Clear
10:52 PM 34.0 °F 26.6 °F 21.9 °F 61% 30.31 in 10.0 mi West 9.2 mph - N/A   Clear
11:52 PM 32.0 °F 26.4 °F 21.0 °F 64% 30.32 in 10.0 mi WNW 5.8 mph - N/A   Clear